TimeCST,TemperatureF,Dew PointF,Humidity,Sea Level PressureIn,VisibilityMPH,Wind Direction,Wind SpeedMPH,Gust SpeedMPH,PrecipitationIn,Events,Conditions,WindDirDegrees,DateUTC
12:00 AM,70,68,92,30.05,9,SE,5.8,,,Rain,Light Rain,140,2012-11-23 06:00:00
12:00 AM,69.8,68.0,94,30.04,6.2,SE,5.8,-,N/A,,Mostly Cloudy,140,2012-11-23 06:00:00
6:00 AM,70,67,88,30.05,10,ESE,4.6,,,,Haze,110,2012-11-23 12:00:00
6:00 AM,69.8,68.0,94,30.04,6.2,ESE,4.6,-,N/A,,Mostly Cloudy,110,2012-11-23 12:00:00
7:00 AM,69.8,68.0,94,30.06,6.2,West,2.3,-,N/A,,Mostly Cloudy,280,2012-11-23 13:00:00
8:00 AM,71.6,68.0,88,30.09,6.2,Variable,2.3,-,N/A,,Mostly Cloudy,0,2012-11-23 14:00:00
9:00 AM,72,69,87,30.10,6,Calm,Calm,,,,Haze,,2012-11-23 15:00:00
9:00 AM,73.4,69.8,88,30.09,6.2,Calm,Calm,-,N/A,,Mostly Cloudy,0,2012-11-23 15:00:00
10:00 AM,77.0,71.6,83,30.06,6.2,Calm,Calm,-,N/A,,Mostly Cloudy,0,2012-11-23 16:00:00
11:00 AM,78.8,71.6,78,30.06,6.2,ENE,8.1,-,N/A,,Mostly Cloudy,70,2012-11-23 17:00:00
12:00 PM,81,71,65,30.04,9,NE,5.8,,,,Haze,50,2012-11-23 18:00:00
12:00 PM,80.6,71.6,74,30.04,6.2,NE,5.8,-,N/A,,Mostly Cloudy,50,2012-11-23 18:00:00
1:00 PM,80.6,71.6,74,30.01,6.2,ENE,4.6,-,N/A,,Mostly Cloudy,70,2012-11-23 19:00:00
2:00 PM,82.4,62.6,51,30.01,6.2,NNE,3.5,-,N/A,,Mostly Cloudy,30,2012-11-23 20:00:00
3:00 PM,81,64,47,30.02,9,NNE,3.5,,,,Haze,20,2012-11-23 21:00:00
3:00 PM,80.6,62.6,54,30.01,6.2,NNE,3.5,-,N/A,,Scattered Clouds,20,2012-11-23 21:00:00
4:00 PM,80.6,62.6,54,30.01,6.2,Variable,2.3,-,N/A,,Mostly Cloudy,0,2012-11-23 22:00:00
5:00 PM,77.0,66.2,69,30.01,6.2,Calm,Calm,-,N/A,,Mostly Cloudy,0,2012-11-23 23:00:00
6:00 PM,70,66,82,30.04,7,SE,2.3,,,,Haze,130,2012-11-24 00:00:00
6:00 PM,69.8,66.2,88,30.04,6.2,SE,2.3,-,N/A,,Scattered Clouds,130,2012-11-24 00:00:00
7:00 PM,71.6,64.4,78,30.06,6.2,NNW,3.5,-,N/A,,Mostly Cloudy,330,2012-11-24 01:00:00
8:00 PM,68.0,66.2,94,30.06,6.2,SSE,3.5,-,N/A,,Mostly Cloudy,160,2012-11-24 02:00:00
9:00 PM,69,66,88,30.09,6,Calm,Calm,,,,Haze,,2012-11-24 03:00:00
9:00 PM,69.8,66.2,88,30.06,6.2,Calm,Calm,-,N/A,,Mostly Cloudy,0,2012-11-24 03:00:00
10:00 PM,69.8,64.4,83,30.06,6.2,ESE,4.6,-,N/A,,Mostly Cloudy,120,2012-11-24 04:00:00
11:00 PM,69.8,64.4,83,30.06,6.2,East,2.3,-,N/A,,Mostly Cloudy,90,2012-11-24 05:00:00